COSMOS 2251 DEB

Satellite information

Favourite Embed

Satellite Type and Status

DEBRISIN ORBIT

Key statistics

Satellite COSMOS 2251 DEB at a glance.

Uptime

11771

Days in orbit

Revolutions

≈ 14.6

Per day

Orbit

LEO

Low Earth Orbit

Inclination

74.1

Latest

Satellite identification and parameters

Extended collection of information and parameters for COSMOS 2251 DEB.

Object identification

Identified? True

Debris? True

Object name: COSMOS 2251 DEB

International designator: 1993-036DZ

Object number (NORAD): 33920

Object ID (CCSDS): 33920

Country: COMMONWEALTH OF INDEPENDENT STATES (CIS)

Current information (Y/N): Y

RCS size: SMALL

Orbital parameters

Period: 98.89 minutes

Inclination: 74.0614 deg

SMA: 7083.726 km

Apoapsis: 733.347 km

Periapsis: 677.835 km

RAAN: 122.4916 deg

Eccentricy: 0.00391827

Argument of periapsis: 160.2931 deg

Mean anomaly: 199.9758 deg

Mean motion: 14.56163378 rev/day

Mean motion (dot): 0.00007583 rev/day2

B* drag term: 0.0017042234 1/REarth

Two-line elements (TLE)

Creation date: Sept. 7, 2025, 3:09 a.m.

Reference frame: TEME

Reference center: EARTH

Epoch: Sept. 6, 2025, 4:38 p.m. UTC

TLE line 0: 0 COSMOS 2251 DEB

TLE line 1: 1 33920U 93036DZ 25249.69313617 .00007583 00000-0 17042-2 0 9995

TLE line 2: 2 33920 74.0614 122.4916 0039183 160.2931 199.9758 14.56163378867016

Live tracking on map

Real-time ground track for satellite COSMOS 2251 DEB.

In-orbit conjunctions

A list of the most updated potential collisions computed for object COSMOS 2251 DEB.

Target Orbit TCA Probability of collision Miss distance Type
MACSAT 1 (M 1) LEO 2024-09-15 08:25:55 0.0002471188 272.0 (m) PAYLOAD

Associated space launch

Military communications satellite. Destroyed in a collision with Iridium 33.

COSMOS 2251 DEB was lifted into orbit during the mission ‘Kosmos-3M | Strela-2M 51’, on board a Kosmos-3M space rocket.

The launch took place on June 16, 1993, 4:17 a.m. from 132/1 (132L).

For more information about the launch, click the button.

Launch to space Kosmos-3M | Strela-2M 51
Kosmos-3M | Strela-2M 51

Agency: N/A

Status: Launch Successful

Launch date: June 16, 1993, 4:17 a.m. UTC

Rocket: Kosmos-3M

Launch pad: 132/1 (132L)

Location: Plesetsk Cosmodrome, Russian Federation

...

Latest news about this satellite

There are no fresh news available about this satellite. Check back as we update our databases every day.


Newsletter sign-up

Weekly statistics, charts and insights to help you stay on top of the space industry.